Location: Recife
(8.0585°S, 34.8848°W)
Time: 10:48:34
(UTC-03:00)

SR - Pass Details

Date: 14 April 2026
Orbit: 568 x 852 km, 66.7° (Epoch: 12 May)

Event Time Altitude Azimuth Distance (km) Brightness Sun altitude
Rises 11:10:46 0° 167° (SSE) 2,781 ? 72.2°
Reaches altitude 10° 11:14:35 10° 131° (SE) 1,868 ? 72.3°
Maximum altitude 11:15:52 11° 113° (ESE) 1,788 ? 72.4°
Drops below altitude 10° 11:17:09 10° 95° (E) 1,869 ? 72.4°
Sets 11:20:57 0° 60° (ENE) 2,786 ? 72.4°
